^^
Datos históricos de la estación: Murcia-Puente Tocinos
Diario Informe para Junio 20, 2021 Unidades:  Ingés    Métrico   Ambas
Diario Semanal Mensual Anual
  Máxima: Mínima: Promedio:
Temperatura: 72.3 °F 70.3 °F 71.1 °F
Punto de rocio: 66.6 °F 65.7 °F 66.2 °F
Humedad: 88% 81% 85%
Velocidad viento: 7.4mph 2mph 3.4mph
Racha viento: 13mph - -
Viento- - SSO
Presión: 29.9 in 29.8 in -
Precipitación: 0 in    
 
 
Tabla de datos para Junio 20, 2021
Hora Temperatura Punto de rocio Presión Viento Velocidad viento Racha viento Humedad Intensidad lluvia(por hora) Nubes
00:04 72.3 °F 66.2 °F 29.9 in NE 3.6 mph 7 mph 81% 0 in
00:09 72.3 °F 66.2 °F 29.9 in NE 3.6 mph 7 mph 81% 0 in
00:14 72.3 °F 66.2 °F 29.9 in NE 3.6 mph 5.9 mph 81% 0 in
00:19 72.3 °F 66.2 °F 29.9 in NE 3.6 mph 6 mph 81% 0 in
00:24 72.3 °F 66.2 °F 29.9 in NNE 3.6 mph 6 mph 81% 0 in
00:29 72.3 °F 66.2 °F 29.9 in ENE 3.2 mph 5.8 mph 81% 0 in
00:34 72.3 °F 66.2 °F 29.9 in NE 2.9 mph 6 mph 81% 0 in
00:39 72.3 °F 66.2 °F 29.9 in NNO 2.9 mph 6.4 mph 81% 0 in
00:44 72.3 °F 66.2 °F 29.9 in NNO 2.9 mph 6.9 mph 81% 0 in
00:49 72.3 °F 66.2 °F 29.9 in ONO 3.3 mph 7 mph 81.2% 0 in
00:54 72.3 °F 66.4 °F 29.9 in Este 3.6 mph 6.9 mph 81.6% 0 in
00:59 72.1 °F 66.2 °F 29.9 in NE 3.3 mph 7 mph 81.4% 0 in
01:04 72.1 °F 66.4 °F 29.9 in SE 3.1 mph 6 mph 82% 0 in
01:09 72.3 °F 66.2 °F 29.9 in ESE 3 mph 5 mph 81.2% 0 in
01:14 72.1 °F 66 °F 29.9 in Este 2.9 mph 4.6 mph 81% 0 in
01:19 72.1 °F 66 °F 29.9 in NE 2.9 mph 5.2 mph 81.3% 0 in
01:24 72.1 °F 66.2 °F 29.9 in NE 2.9 mph 7.4 mph 81.9% 0 in
01:29 72 °F 66.2 °F 29.9 in NE 3.5 mph 7 mph 82% 0 in
01:34 72 °F 66.2 °F 29.9 in NE 4 mph 7 mph 82% 0 in
01:39 72 °F 66 °F 29.9 in NE 4 mph 7 mph 82% 0 in
01:44 71.8 °F 66 °F 29.9 in NE 4 mph 6 mph 82% 0 in
01:49 71.8 °F 66 °F 29.9 in NE 3.8 mph 6 mph 82% 0 in
01:51 71.8 °F 66 °F 29.9 in North 3.6 mph 5.9 mph 82% 0 in
01:59 71.6 °F 65.8 °F 29.9 in NNE 3.6 mph 6.2 mph 82% 0 in
02:04 71.4 °F 65.7 °F 29.9 in NNE 3.6 mph 6 mph 82% 0 in
02:09 71.4 °F 65.8 °F 29.9 in NE 3.6 mph 7.4 mph 82.6% 0 in
02:14 71.4 °F 66 °F 29.9 in NNE 3.6 mph 7 mph 83% 0 in
02:19 71.4 °F 66 °F 29.9 in NNE 3.6 mph 6 mph 83% 0 in
02:24 71.4 °F 66 °F 29.9 in NNE 3.6 mph 5 mph 83% 0 in
02:29 71.2 °F 65.8 °F 29.9 in NNE 3.2 mph 5 mph 83% 0 in
02:34 71.2 °F 65.8 °F 29.9 in North 2.9 mph 5 mph 83% 0 in
02:39 71.2 °F 65.8 °F 29.9 in NO 2.9 mph 5.4 mph 83% 0 in
02:44 71.2 °F 65.8 °F 29.9 in NO 2.9 mph 6 mph 83.1% 0 in
02:49 71.1 °F 66 °F 29.9 in ONO 3.3 mph 6 mph 84% 0 in
02:54 71.1 °F 66 °F 29.9 in NO 3.6 mph 6 mph 84% 0 in
02:59 71.1 °F 66 °F 29.9 in NO 3.1 mph 5 mph 84% 0 in
03:04 71.1 °F 66.2 °F 29.9 in NO 2.9 mph 5 mph 84.5% 0 in
03:09 71.1 °F 66.4 °F 29.9 in NO 3 mph 5.2 mph 85% 0 in
03:14 71.1 °F 66.4 °F 29.9 in NNO 3.1 mph 5.9 mph 85% 0 in
03:19 70.9 °F 66.2 °F 29.9 in NNO 3 mph 6 mph 85% 0 in
03:24 70.9 °F 66 °F 29.9 in NO 2.9 mph 5 mph 85% 0 in
03:29 70.9 °F 66 °F 29.9 in North 2.6 mph 5 mph 85% 0 in
03:34 70.9 °F 66 °F 29.9 in North 2.4 mph 5.8 mph 85% 0 in
03:39 70.9 °F 66 °F 29.9 in NNE 3 mph 6 mph 85% 0 in
03:44 70.7 °F 66 °F 29.9 in North 3.6 mph 6.2 mph 85% 0 in
03:49 70.7 °F 66.2 °F 29.9 in North 3.6 mph 6 mph 85.5% 0 in
03:54 70.7 °F 66.4 °F 29.9 in NNE 3.6 mph 6 mph 86% 0 in
03:59 70.7 °F 66.2 °F 29.9 in NE 3.2 mph 5.4 mph 86% 0 in
04:04 70.7 °F 66.2 °F 29.9 in North 2.9 mph 5 mph 86% 0 in
04:09 70.7 °F 66.4 °F 29.9 in NNE 2.6 mph 5 mph 86% 0 in
04:14 70.7 °F 66.4 °F 29.9 in NNO 2.4 mph 4.6 mph 86% 0 in
04:19 70.7 °F 66.4 °F 29.9 in NNO 2.4 mph 5.9 mph 86% 0 in
04:24 70.7 °F 66.2 °F 29.9 in North 2.4 mph 6 mph 86% 0 in
04:29 70.5 °F 66 °F 29.9 in NO 2.9 mph 6.2 mph 86% 0 in
04:34 70.5 °F 66 °F 29.9 in NO 3.1 mph 6 mph 86% 0 in
04:39 70.5 °F 66.2 °F 29.9 in NO 3 mph 6 mph 86.1% 0 in
04:44 70.5 °F 66.4 °F 29.9 in NO 2.9 mph 5 mph 86.8% 0 in
04:49 70.5 °F 66.2 °F 29.9 in NO 2.9 mph 5 mph 86.2% 0 in
04:54 70.5 °F 66.6 °F 29.9 in ONO 2.9 mph 5.2 mph 87% 0 in
04:59 70.5 °F 66.6 °F 29.9 in NO 2.5 mph 5.2 mph 87% 0 in
05:04 70.5 °F 66.6 °F 29.9 in NO 2.4 mph 5.8 mph 87% 0 in
05:09 70.5 °F 66.6 °F 29.9 in NO 2.8 mph 6 mph 87% 0 in
05:14 70.5 °F 66.6 °F 29.9 in NO 3.1 mph 5.2 mph 87% 0 in
05:19 70.3 °F 66.4 °F 29.9 in NO 3 mph 5.4 mph 87% 0 in
05:24 70.3 °F 66.4 °F 29.9 in ONO 2.9 mph 6 mph 87% 0 in
05:29 70.3 °F 66.4 °F 29.9 in Oeste 3.3 mph 6.2 mph 87.1% 0 in
05:34 70.3 °F 66.6 °F 29.9 in Oeste 3.6 mph 6.9 mph 87.9% 0 in
05:39 70.3 °F 66.6 °F 29.9 in OSO 3.6 mph 6.2 mph 88% 0 in
05:44 70.3 °F 66.6 °F 29.9 in Oeste 3.6 mph 6.2 mph 88% 0 in
05:49 70.3 °F 66.6 °F 29.9 in Oeste 3.3 mph 6 mph 88% 0 in
05:54 70.3 °F 66.4 °F 29.9 in Oeste 3.1 mph 6.9 mph 87.2% 0 in
05:59 70.5 °F 66.6 °F 29.9 in Oeste 3 mph 7 mph 87% 0 in
06:04 70.5 °F 66.6 °F 29.9 in North 2.9 mph 4.6 mph 87% 0 in
06:09 70.5 °F 66.6 °F 29.9 in NNE 2.4 mph 5 mph 87% 0 in
06:14 70.5 °F 66.6 °F 29.9 in NNE 2 mph 5.4 mph 87% 0 in
06:19 70.5 °F 66.6 °F 29.9 in NE 2.5 mph 6 mph 87% 0 in
06:24 70.3 °F 66.4 °F 29.9 in NNE 2.9 mph 6 mph 87% 0 in
06:29 70.3 °F 66.4 °F 29.9 in North 3.3 mph 6 mph 87% 0 in
06:34 70.3 °F 66.4 °F 29.8 in ONO 3.6 mph 5.9 mph 87% 0 in
06:39 70.3 °F 66.4 °F 29.9 in OSO 3.3 mph 10.7 mph 87% 0 in
06:44 70.3 °F 66.4 °F 29.9 in OSO 3.1 mph 11 mph 87% 0 in
06:49 70.5 °F 66.6 °F 29.9 in SO 4.7 mph 11.5 mph 87% 0 in
06:54 70.7 °F 66.6 °F 29.9 in SO 6.2 mph 12.7 mph 86.7% 0 in
06:59 70.9 °F 66.6 °F 29.9 in SO 6.9 mph 12.7 mph 86% 0 in
07:04 70.7 °F 66.2 °F 29.9 in SO 7.4 mph 12.7 mph 86% 0 in
07:09 70.5 °F 66 °F 29.9 in SO 6.8 mph 13 mph 86% 0 in
07:14 70.5 °F 66.2 °F 29.9 in SO 6.4 mph 9 mph 86% 0 in
07:19 70.5 °F 66 °F 29.9 in OSO 5.5 mph 8 mph 86% 0 in
Murcia-Puente Tocinos, España
Compliments of Weather Underground - 1.75 mb

La estación de MeteoMurcia.com, publica sus datos en los siguientes proyectos:

Weather Underground PWS IMURCIAP2 Meteoclimatic www.awekas.at

W3Counter
Web Analytics